EN

Hourly Weather Przhevalskoe

Today, 20 October, Tuesday

Time Temperature Precipitation Wind Pressure Humidity
00:00 +1°C° 0 mm 5 mps 741 mmHg 82%
01:00 0°C° 0 mm 5 mps 741 mmHg 83%
02:00 +1°C° 0 mm 5 mps 741 mmHg 84%
03:00 +1°C° 0 mm 5 mps 741 mmHg 83%
04:00 +1°C° 0 mm 5 mps 741 mmHg 83%
05:00 +1°C° 0 mm 5 mps 741 mmHg 82%
06:00 +1°C° 0 mm 5 mps 741 mmHg 81%
07:00 +1°C° 0 mm 5 mps 742 mmHg 80%
08:00 +1°C° 0 mm 6 mps 742 mmHg 79%
09:00 +1°C° 0.2 mm 6 mps 743 mmHg 80%
10:00 +1°C° 0.2 mm 5 mps 743 mmHg 80%
11:00 +1°C° 0.2 mm 5 mps 744 mmHg 80%
12:00 +1°C° 0.1 mm 5 mps 744 mmHg 76%
13:00 +2°C° 0.1 mm 5 mps 745 mmHg 72%
14:00 +3°C° 0 mm 4 mps 746 mmHg 67%
15:00 +3°C° 0 mm 4 mps 746 mmHg 70%
16:00 +2°C° 0 mm 3 mps 747 mmHg 73%
17:00 +1°C° 0 mm 3 mps 747 mmHg 77%
18:00 +1°C° 0 mm 3 mps 747 mmHg 77%
19:00 +2°C° 0 mm 2 mps 748 mmHg 78%
20:00 +1°C° 0 mm 2 mps 748 mmHg 79%
21:00 +1°C° 0 mm 2 mps 748 mmHg 80%
22:00 +1°C° 0 mm 2 mps 748 mmHg 81%
23:00 +2°C° 0 mm 1 mps 749 mmHg 82%

Tomorrow, 21 October, Wednesday

Time Temperature Precipitation Wind Pressure Humidity
00:00 +2°C° 0 mm 1 mps 749 mmHg 83%
01:00 +1°C° 0 mm 2 mps 749 mmHg 83%
02:00 +1°C° 0 mm 2 mps 749 mmHg 84%
03:00 +2°C° 0 mm 2 mps 748 mmHg 85%
04:00 +2°C° 0 mm 2 mps 748 mmHg 86%
05:00 +2°C° 0 mm 2 mps 748 mmHg 87%
06:00 +2°C° 0 mm 2 mps 747 mmHg 86%
07:00 +3°C° 0 mm 2 mps 747 mmHg 86%
08:00 +2°C° 0 mm 3 mps 747 mmHg 85%
09:00 +2°C° 0.6 mm 3 mps 747 mmHg 88%
10:00 +2°C° 0.6 mm 3 mps 746 mmHg 92%
11:00 +2°C° 0.6 mm 3 mps 746 mmHg 95%
12:00 +3°C° 0.5 mm 3 mps 745 mmHg 94%
13:00 +3°C° 0.5 mm 3 mps 745 mmHg 94%
14:00 +3°C° 0.5 mm 3 mps 745 mmHg 93%
15:00 +3°C° 0 mm 3 mps 744 mmHg 94%
16:00 +5°C° 0 mm 2 mps 744 mmHg 95%
17:00 +5°C° 0 mm 2 mps 743 mmHg 95%
18:00 +5°C° 0 mm 2 mps 744 mmHg 96%
19:00 +6°C° 0 mm 1 mps 744 mmHg 96%
20:00 +6°C° 0 mm 1 mps 744 mmHg 97%
21:00 +6°C° 0 mm 1 mps 744 mmHg 97%
22:00 +6°C° 0 mm 1 mps 744 mmHg 97%
23:00 +5°C° 0 mm 2 mps 744 mmHg 97%

Day after tomorrow, 22 October, Thursday

Time Temperature Precipitation Wind Pressure Humidity
00:00 +6°C° 0 mm 1 mps 744 mmHg 97%
01:00 +6°C° 0 mm 1 mps 744 mmHg 97%
02:00 +6°C° 0 mm 1 mps 744 mmHg 97%
03:00 +5°C° 0 mm 2 mps 744 mmHg 96%
04:00 +5°C° 0 mm 2 mps 743 mmHg 95%
05:00 +5°C° 0 mm 2 mps 743 mmHg 95%
06:00 +4°C° 0.1 mm 3 mps 743 mmHg 94%
07:00 +5°C° 0.1 mm 3 mps 742 mmHg 93%
08:00 +5°C° 0.1 mm 3 mps 742 mmHg 92%
09:00 +5°C° 0.8 mm 4 mps 741 mmHg 93%
10:00 +5°C° 0.8 mm 4 mps 741 mmHg 93%
11:00 +5°C° 0.8 mm 4 mps 740 mmHg 94%
12:00 +6°C° 0.3 mm 4 mps 740 mmHg 91%
13:00 +7°C° 0.3 mm 4 mps 739 mmHg 89%
14:00 +8°C° 0.3 mm 5 mps 739 mmHg 87%
15:00 +8°C° 0.1 mm 4 mps 739 mmHg 87%
16:00 +10°C° 0.1 mm 4 mps 738 mmHg 88%
17:00 +10°C° 0.1 mm 4 mps 738 mmHg 88%
18:00 +10°C° 0 mm 4 mps 738 mmHg 88%
19:00 +10°C° 0 mm 5 mps 738 mmHg 87%
20:00 +10°C° 0 mm 5 mps 738 mmHg 87%
21:00 +10°C° 0 mm 5 mps 738 mmHg 86%
22:00 +10°C° 0 mm 5 mps 738 mmHg 86%
23:00 +12°C° 0 mm 5 mps 739 mmHg 85%

23 October, Friday

Time Temperature Precipitation Wind Pressure Humidity
00:00 +10°C° 0 mm 5 mps 739 mmHg 86%
01:00 +11°C° 0 mm 4 mps 739 mmHg 88%
02:00 +11°C° 0 mm 4 mps 740 mmHg 89%
03:00 +11°C° 0 mm 4 mps 740 mmHg 89%
04:00 +11°C° 0 mm 4 mps 740 mmHg 90%
05:00 +10°C° 0 mm 4 mps 740 mmHg 91%
06:00 +10°C° 0 mm 4 mps 739 mmHg 91%
07:00 +10°C° 0 mm 4 mps 739 mmHg 91%
08:00 +10°C° 0 mm 4 mps 739 mmHg 91%
09:00 +11°C° 0 mm 4 mps 738 mmHg 90%
10:00 +11°C° 0 mm 4 mps 738 mmHg 88%
11:00 +12°C° 0 mm 4 mps 738 mmHg 87%
12:00 +12°C° 0.9 mm 5 mps 737 mmHg 88%
13:00 +12°C° 0.9 mm 5 mps 737 mmHg 89%
14:00 +11°C° 0.9 mm 6 mps 736 mmHg 90%
15:00 +12°C° 1.2 mm 5 mps 736 mmHg 90%
16:00 +12°C° 1.2 mm 5 mps 736 mmHg 90%
17:00 +12°C° 1.2 mm 4 mps 735 mmHg 90%
18:00 +12°C° 0.2 mm 4 mps 736 mmHg 90%
19:00 +10°C° 0.2 mm 5 mps 736 mmHg 89%
20:00 +10°C° 0.2 mm 5 mps 736 mmHg 88%
21:00 +10°C° 0.1 mm 5 mps 736 mmHg 88%
22:00 +10°C° 0.1 mm 4 mps 737 mmHg 89%
23:00 +8°C° 0.1 mm 4 mps 737 mmHg 89%

24 October, Saturday

Time Temperature Precipitation Wind Pressure Humidity
00:00 +8°C° 0 mm 4 mps 737 mmHg 90%
01:00 +8°C° 0 mm 4 mps 738 mmHg 91%
02:00 +7°C° 0 mm 4 mps 738 mmHg 91%
03:00 +7°C° 0 mm 4 mps 738 mmHg 91%
04:00 +7°C° 0 mm 4 mps 738 mmHg 90%
05:00 +7°C° 0 mm 4 mps 739 mmHg 90%
06:00 +8°C° 0 mm 3 mps 739 mmHg 90%
07:00 +8°C° 0 mm 3 mps 739 mmHg 90%
08:00 +8°C° 0 mm 2 mps 739 mmHg 90%
09:00 +8°C° 0 mm 2 mps 739 mmHg 89%
10:00 +8°C° 0 mm 3 mps 739 mmHg 88%
11:00 +8°C° 0 mm 3 mps 740 mmHg 87%
12:00 +8°C° 0 mm 2 mps 739 mmHg 86%
13:00 +9°C° 0 mm 2 mps 739 mmHg 84%
14:00 +9°C° 0 mm 2 mps 739 mmHg 83%
15:00 +8°C° 0 mm 2 mps 739 mmHg 85%
16:00 +8°C° 0 mm 2 mps 738 mmHg 87%
17:00 +9°C° 0 mm 1 mps 738 mmHg 89%
18:00 +9°C° 0.1 mm 1 mps 738 mmHg 91%
19:00 +8°C° 0.1 mm 1 mps 737 mmHg 92%
20:00 +8°C° 0.1 mm 1 mps 737 mmHg 94%
21:00 +7°C° 0.8 mm 2 mps 737 mmHg 94%
22:00 +7°C° 0.8 mm 2 mps 736 mmHg 95%
23:00 +8°C° 0.8 mm 2 mps 735 mmHg 95%

25 October, Sunday

Time Temperature Precipitation Wind Pressure Humidity
00:00 +8°C° 1 mm 3 mps 735 mmHg 95%
01:00 +8°C° 1 mm 3 mps 734 mmHg 95%
02:00 +8°C° 1 mm 3 mps 734 mmHg 94%
03:00 +8°C° 1 mm 3 mps 734 mmHg 94%
04:00 +6°C° 1 mm 4 mps 734 mmHg 93%
05:00 +6°C° 1 mm 4 mps 734 mmHg 92%
06:00 +6°C° 0.4 mm 4 mps 735 mmHg 92%
07:00 +6°C° 0.4 mm 4 mps 735 mmHg 91%
08:00 +7°C° 0.4 mm 3 mps 736 mmHg 91%
09:00 +7°C° 0 mm 4 mps 737 mmHg 86%
10:00 +7°C° 0 mm 4 mps 738 mmHg 82%
11:00 +8°C° 0 mm 4 mps 739 mmHg 77%
12:00 +8°C° 0 mm 4 mps 739 mmHg 76%
13:00 +8°C° 0 mm 4 mps 740 mmHg 75%
14:00 +10°C° 0 mm 4 mps 740 mmHg 74%
15:00 +9°C° 0 mm 3 mps 741 mmHg 78%
16:00 +8°C° 0 mm 3 mps 742 mmHg 83%
17:00 +7°C° 0 mm 2 mps 742 mmHg 88%
18:00 +7°C° 0 mm 2 mps 743 mmHg 89%
19:00 +7°C° 0 mm 2 mps 743 mmHg 91%
20:00 +7°C° 0 mm 2 mps 744 mmHg 93%
21:00 +7°C° 0 mm 2 mps 744 mmHg 94%
22:00 +8°C° 0 mm 1 mps 745 mmHg 95%
23:00 +7°C° 0 mm 1 mps 745 mmHg 96%

26 October, Monday

Time Temperature Precipitation Wind Pressure Humidity
00:00 +7°C° 0 mm 1 mps 746 mmHg 96%
01:00 +7°C° 0 mm 1 mps 746 mmHg 95%
02:00 +7°C° 0 mm 1 mps 747 mmHg 95%
03:00 +7°C° 0 mm 1 mps 747 mmHg 95%
04:00 +6°C° 0 mm 1 mps 747 mmHg 96%
05:00 +6°C° 0 mm 1 mps 748 mmHg 96%
06:00 +6°C° 0 mm 1 mps 748 mmHg 96%
07:00 +6°C° 0 mm 1 mps 748 mmHg 95%
08:00 +5°C° 0 mm 0 mps 749 mmHg 95%
09:00 +6°C° 0 mm 0 mps 749 mmHg 90%
10:00 +7°C° 0 mm 0 mps 749 mmHg 84%
11:00 +9°C° 0 mm 0 mps 749 mmHg 79%
12:00 +9°C° 0 mm 0 mps 749 mmHg 77%
13:00 +9°C° 0 mm 0 mps 749 mmHg 75%
14:00 +11°C° 0 mm 1 mps 750 mmHg 74%
15:00 +10°C° 0 mm 1 mps 750 mmHg 79%
16:00 +8°C° 0 mm 1 mps 750 mmHg 84%
17:00 +7°C° 0 mm 1 mps 750 mmHg 89%
18:00 +7°C° 0 mm 1 mps 750 mmHg 90%
19:00 +7°C° 0 mm 1 mps 750 mmHg 92%
20:00 +6°C° 0 mm 1 mps 750 mmHg 93%
21:00 +6°C° 0 mm 1 mps 751 mmHg 93%
22:00 +5°C° 0 mm 2 mps 751 mmHg 94%
23:00 +5°C° 0 mm 2 mps 751 mmHg 95%
Show more

We Need Your Consent

Meteoprog and our Service Providers may store and access personal data such as cookies, device identifiers or other similar technologies on your device and process such data to personalise content and ads, as well as provide social media features and to analyse the traffic.

  • Store and/or access information on your device

    Cookies, device identifiers or other information can be stored or accessed on your device for the purposes indicated above.

  • Personalised ads and content, ad and content measurement, audience insights, and products development

    Ads and content can be personalised based on a profile. More data can be added to better personalise ads and content. Ad and content performance can be measured. Insights about the audience who saw the ads and content can be derived. Such data can be used to develop or improve user’s experience, systems and software.

By clicking ‘I Agree’ you will allow the use of indicated cookies, device identifiers, web beacons or other similar technologies. Your settings can be changed in the browser on your device.

For certain purposes, legitimate interests may be relied on, rather than consent. You can read more about this in our Privacy and Cookie Policy.